TimeEDT,TemperatureF,Dew PointF,Humidity,Sea Level PressureIn,VisibilityMPH,Wind Direction,Wind SpeedMPH,Gust SpeedMPH,PrecipitationIn,Events,Conditions,WindDirDegrees,DateUTC
12:53 AM,63.0,59.0,87,29.98,10.0,Calm,Calm,-,N/A,,Clear,0,2013-07-22 04:53:00
1:53 AM,62.1,57.9,86,29.97,10.0,Calm,Calm,-,N/A,,Clear,0,2013-07-22 05:53:00
2:53 AM,61.0,57.9,90,29.96,10.0,Calm,Calm,-,N/A,,Clear,0,2013-07-22 06:53:00
3:53 AM,61.0,57.0,87,29.95,10.0,Calm,Calm,-,N/A,,Clear,0,2013-07-22 07:53:00
4:53 AM,60.1,57.0,90,29.94,10.0,Calm,Calm,-,N/A,,Clear,0,2013-07-22 08:53:00
5:53 AM,59.0,57.0,93,29.96,10.0,ENE,3.5,-,N/A,,Clear,70,2013-07-22 09:53:00
6:53 AM,61.0,57.9,90,29.95,10.0,East,4.6,-,N/A,,Clear,90,2013-07-22 10:53:00
6:59 AM,60.8,57.2,88,29.96,10.0,East,4.6,-,N/A,,Mostly Cloudy,90,2013-07-22 10:59:00
7:53 AM,64.9,60.1,84,29.94,10.0,ESE,11.5,-,N/A,,Mostly Cloudy,110,2013-07-22 11:53:00
8:53 AM,69.1,59.0,70,29.94,10.0,ESE,11.5,-,N/A,,Mostly Cloudy,110,2013-07-22 12:53:00
9:53 AM,72.0,60.1,66,29.93,10.0,ESE,10.4,-,N/A,,Mostly Cloudy,110,2013-07-22 13:53:00
10:53 AM,75.9,60.1,58,29.92,10.0,East,9.2,-,N/A,,Mostly Cloudy,100,2013-07-22 14:53:00
11:53 AM,75.9,61.0,60,29.91,10.0,ENE,10.4,-,N/A,,Mostly Cloudy,70,2013-07-22 15:53:00
12:53 PM,75.9,61.0,60,29.90,10.0,ESE,10.4,-,N/A,,Mostly Cloudy,110,2013-07-22 16:53:00
1:53 PM,77.0,62.1,60,29.89,10.0,East,10.4,-,N/A,,Mostly Cloudy,80,2013-07-22 17:53:00
2:53 PM,78.1,63.0,60,29.87,10.0,ENE,8.1,-,N/A,,Mostly Cloudy,60,2013-07-22 18:53:00
3:53 PM,78.1,64.9,64,29.84,10.0,NE,8.1,-,N/A,,Overcast,50,2013-07-22 19:53:00
4:53 PM,78.1,64.9,64,29.83,10.0,NE,9.2,-,N/A,,Overcast,50,2013-07-22 20:53:00
5:53 PM,75.0,64.9,71,29.82,10.0,NE,8.1,-,N/A,,Overcast,50,2013-07-22 21:53:00
6:53 PM,73.9,64.9,73,29.81,10.0,ENE,8.1,-,N/A,,Overcast,70,2013-07-22 22:53:00
7:53 PM,72.0,64.0,76,29.80,10.0,NNE,6.9,-,N/A,,Overcast,30,2013-07-22 23:53:00
8:53 PM,70.0,63.0,78,29.79,10.0,East,4.6,-,N/A,,Mostly Cloudy,90,2013-07-23 00:53:00
9:53 PM,70.0,63.0,78,29.79,10.0,East,5.8,-,N/A,,Mostly Cloudy,90,2013-07-23 01:53:00
10:53 PM,70.0,64.0,81,29.77,10.0,ESE,4.6,-,N/A,,Overcast,110,2013-07-23 02:53:00
11:53 PM,70.0,64.0,81,29.76,10.0,Calm,Calm,-,N/A,,Partly Cloudy,0,2013-07-23 03:53:00